EHI
0 0 0 0 0 0 0 0 0 0 1 4 7 15 25 34 36 36 36 36 36 39 39 36 34 32 29 28 27 24 18 16 15 12 9 7 8 9 9 10 11 14 18 19
0 0 0 0 0 0 0 0 0 0 1 5 11 19 28 35 38 38 38 38 37 39 38 35 32 29 26 25 24 21 17 15 14 11 8 7 7 8 9 10 12 15 19 21
0 0 0 0 0 0 0 0 0 0 2 6 13 20 27 33 39 41 40 39 39 37 35 32 29 26 22 21 21 19 16 15 13 11 8 8 8 9 10 11 13 15 18 19
0 0 0 0 0 0 0 0 0 1 3 8 14 18 22 28 38 43 43 43 41 37 33 28 25 23 20 18 18 18 16 14 13 12 11 10 9 10 11 12 13 13 13 12
0 0 0 0 0 0 0 0 0 2 6 11 16 16 18 25 36 44 47 46 43 37 32 27 23 20 18 15 14 14 13 12 12 12 12 10 9 9 10 10 9 8 6 6
0 0 0 0 0 0 0 0 1 4 11 17 17 17 21 30 39 45 47 46 43 37 32 27 21 17 15 12 9 9 10 10 9 10 10 9 8 8 7 5 3 2 2 2
0 0 0 0 0 0 1 3 4 8 17 23 23 27 33 39 42 42 42 43 40 35 30 24 19 15 13 11 8 7 7 7 7 8 8 7 7 7 4 1 0 0 0 0
0 0 1 3 4 5 7 9 9 11 20 29 34 38 41 41 40 36 36 38 37 32 26 22 18 16 13 10 8 6 7 9 9 9 7 6 5 4 2 1 0 0 0 0
3 3 5 7 8 9 12 14 13 15 24 34 39 39 39 39 35 31 30 31 30 27 23 20 18 16 14 10 7 7 8 10 11 9 6 4 3 3 1 0 0 0 0 0
8 7 7 8 8 10 13 15 16 20 26 32 34 33 32 33 31 27 26 24 23 22 20 18 16 15 13 10 8 7 8 9 8 7 4 2 2 2 1 0 0 0 0 0
10 10 10 10 10 11 13 16 18 20 22 25 27 27 26 25 23 23 23 21 19 18 16 14 12 11 9 9 9 8 7 6 5 4 2 1 1 1 0 0 0 0 0 0
10 11 13 14 13 12 12 14 16 17 19 21 21 22 21 18 15 16 17 16 15 13 9 7 7 6 5 6 8 7 6 5 4 2 1 0 0 0 0 0 0 0 0 0
12 10 12 14 13 10 8 10 13 15 17 17 16 17 16 13 11 10 9 7 8 6 3 2 2 2 2 3 4 5 4 3 2 1 0 0 0 0 0 0 0 0 0 0
10 9 8 10 10 8 7 8 10 11 11 10 10 10 9 9 8 6 3 2 2 2 1 0 0 1 2 1 1 1 1 1 1 0 0 0 0 0 0 0 0 0 0 0
6 6 7 6 6 5 6 7 7 6 5 4 4 4 4 4 3 2 1 0 0 0 0 0 0 2 2 1 0 0 0 0 0 0 0 0 0 0 0 0 0 0 0 0
3 4 4 4 2 3 4 5 4 3 2 2 1 1 1 1 1 0 0 0 0 0 0 0 0 1 2 1 0 0 0 0 0 0 0 0 0 0 0 0 0 0 0 0
1 1 1 1 1 1 2 2 2 1 1 1 0 0 0 0 0 0 0 0 0 0 1 1 0 0 1 1 0 0 0 0 0 0 0 0 0 0 0 0 0 0 0 0
0 0 0 0 0 0 0 1 1 0 0 0 0 0 0 0 0 0 0 0 0 1 2 2 1 0 0 0 0 0 0 0 0 0 0 0 0 0 0 0 0 0 0 0
0 0 0 0 0 0 0 0 0 0 0 0 0 0 0 0 0 0 0 0 0 1 2 2 1 0 0 0 0 0 0 0 0 0 0 0 0 0 0 0 0 0 0 0
0 0 0 0 0 0 0 0 0 0 0 0 0 0 0 0 0 0 0 0 0 1 2 2 1 0 0 0 0 0 0 0 0 0 0 0 0 0 0 0 0 0 0 0
0 0 0 0 0 0 0 0 0 0 0 0 0 0 0 0 0 0 0 0 0 0 1 1 0 0 0 0 0 0 0 0 0 0 0 0 0 0 0 0 0 0 0 0
0 0 0 0 0 0 0 0 0 0 0 0 0 0 0 0 0 0 0 0 0 0 0 0 0 0 0 0 0 0 0 0 0 0 0 0 0 0 0 0 0 0 0 0
0 1 1 0 0 0 0 0 0 0 0 0 0 0 0 0 0 0 0 0 0 0 0 0 0 0 0 0 0 0 0 0 0 0 0 0 0 0 0 0 0 0 0 0
1 1 1 0 0 0 0 0 0 0 0 0 0 0 0 0 0 0 0 0 0 0 0 0 0 0 0 0 0 0 0 0 0 0 0 0 0 0 0 0 0 0 0 0
1 1 1 0 0 0 0 0 0 0 0 0 0 0 0 0 0 0 0 0 0 0 0 0 0 0 0 0 0 0 0 0 0 0 0 0 0 0 0 0 0 0 0 0
1 0 0 0 0 0 0 0 0 0 0 0 0 0 0 0 0 0 0 0 0 0 0 0 0 0 0 0 0 0 0 0 0 0 0 0 0 0 0 0 0 0 0 0
0 0 0 0 0 0 0 0 0 0 0 0 0 0 0 0 0 0 0 0 0 0 0 0 0 0 0 0 0 0 0 0 0 0 0 0 0 0 0 0 0 0 0 0
Wind_Speed
9 6 10 14 15 17 17 14 12 9 9 6 5 5 7 9 10 10 11 10 10 9 9 8 8 7 6 6 5 5 5 4 4 4 3 3 2 1 1 1 1 2 2 1
10 9 10 11 13 15 16 15 14 11 8 2 3 5 8 10 11 11 11 11 10 10 9 9 8 7 7 6 6 5 5 5 4 4 3 3 2 2 1 1 1 2 2 2
10 10 11 14 13 13 13 13 12 12 7 4 5 7 9 11 11 11 12 11 11 10 9 8 8 7 7 6 6 6 5 4 4 4 4 3 3 2 2 2 2 3 3 3
8 9 13 6 5 10 11 10 9 7 4 5 5 5 6 8 10 11 11 11 11 10 9 8 8 8 7 7 6 6 5 5 4 4 4 4 4 4 3 3 4 4 4 4
8 11 9 6 5 8 10 9 8 7 5 5 7 8 7 7 8 10 10 10 10 10 10 9 8 8 8 7 6 6 6 5 5 5 5 5 5 5 5 5 5 5 5 5
9 10 10 6 7 4 7 9 6 7 7 9 10 8 7 8 10 11 10 9 9 10 10 9 8 8 8 7 6 6 6 5 5 5 5 6 6 6 6 6 6 7 7 7
11 9 5 5 5 7 9 3 4 5 7 9 7 1 10 12 11 12 11 11 11 11 9 8 8 8 8 7 6 6 6 6 5 5 6 6 6 5 5 6 7 7 7 7
10 11 6 5 5 5 3 3 2 3 5 7 7 11 13 13 13 12 12 12 11 10 9 8 8 8 8 7 7 7 7 6 6 6 5 6 6 6 6 6 6 6 6 7
3 1 5 2 1 3 3 1 1 3 6 9 10 11 12 12 12 12 12 11 10 11 10 8 7 7 9 8 7 7 8 7 6 7 6 6 5 6 5 4 4 4 5 5
2 2 2 1 1 1 1 1 2 5 8 10 11 12 12 11 11 11 11 10 10 11 10 9 8 8 8 8 8 8 8 7 7 7 7 7 5 4 4 4 4 4 4 5
4 2 1 2 3 3 3 4 5 7 9 10 12 12 12 11 11 10 10 9 9 10 10 9 8 8 8 8 8 8 8 7 7 7 8 8 8 8 7 8 7 5 5 5
2 2 1 2 2 3 5 6 7 9 10 10 11 12 12 11 10 10 10 10 10 10 10 9 9 8 8 7 7 8 8 7 6 6 6 7 8 9 15 12 13 13 11 8
1 1 2 2 2 4 5 7 7 9 10 11 11 11 12 11 10 11 11 10 10 10 10 10 9 8 8 7 7 7 7 6 6 6 6 6 7 7 8 9 12 13 12 11
2 2 3 3 4 5 6 8 9 10 10 10 10 11 11 11 11 11 11 10 10 10 10 9 9 8 7 7 7 8 8 7 6 6 5 6 6 6 6 6 7 7 8 9
2 2 3 4 5 6 7 8 9 9 10 10 10 10 11 11 11 11 10 10 10 10 9 9 9 8 7 7 8 8 7 6 6 6 6 6 6 6 6 6 6 6 7 7
3 4 5 6 7 6 7 8 9 9 9 10 10 10 10 11 10 10 10 9 10 10 9 9 9 8 7 8 8 7 7 7 6 6 6 6 5 5 6 5 5 5 5 5
4 5 6 7 7 6 6 7 8 8 9 9 10 10 10 11 10 10 10 9 9 9 9 8 8 8 7 8 8 7 7 8 6 5 6 6 5 5 5 5 5 5 5 5
3 3 4 5 6 6 7 8 8 9 9 10 10 10 10 10 10 10 9 10 9 9 8 8 8 8 8 7 6 6 7 6 5 5 6 5 5 5 5 5 6 6 6 5
3 4 5 6 6 7 7 8 8 9 10 10 10 10 10 9 10 10 10 10 9 9 7 8 8 8 8 7 6 5 6 7 6 6 6 6 5 5 5 5 5 5 4 4
4 5 7 8 8 8 8 8 8 9 9 10 11 11 10 10 9 10 10 8 6 6 7 8 8 8 8 7 4 5 6 6 7 6 6 5 5 5 5 4 4 4 4 3
5 6 8 9 9 8 9 9 9 9 10 10 10 11 10 10 9 9 9 8 7 7 9 8 6 6 6 5 3 5 6 6 6 6 5 5 5 5 5 4 4 3 3 3
5 6 8 9 10 9 8 9 9 10 10 9 10 10 11 10 10 8 8 6 7 7 6 7 6 6 5 4 5 5 6 6 5 5 5 5 5 5 4 4 4 3 3 2
6 7 9 10 10 10 10 9 10 9 9 9 9 10 9 8 7 7 7 6 7 7 5 6 8 7 4 4 5 6 6 6 5 5 5 5 4 4 4 4 3 3 3 2
8 9 9 10 10 11 11 10 9 8 9 9 8 9 9 8 6 6 7 9 8 7 6 8 8 6 4 4 5 5 5 5 4 4 5 4 4 4 4 3 3 2 2 2
10 10 10 11 10 9 10 10 10 10 10 8 10 9 7 6 7 7 8 10 9 8 8 9 7 5 4 4 5 5 5 4 3 3 4 3 3 4 3 2 2 2 2 2
9 8 7 8 8 7 7 8 8 8 8 8 8 7 7 7 8 7 7 9 10 7 7 7 6 5 4 5 5 5 5 5 4 3 3 2 3 3 2 2 2 1 1 1
9 8 7 7 7 7 7 7 8 8 8 8 8 7 7 7 7 8 8 8 8 7 6 6 5 5 4 5 5 4 4 4 3 3 3 2 2 2 2 2 2 1 1 1
Wind_Direction
240 220 198 205 207 210 222 233 238 229 234 230 204 183 166 159 154 152 151 151 147 142 136 135 132 129 126 122 121 120 118 112 105 100 92 85 82 96 126 144 161 159 147 146
215 217 218 218 213 211 219 229 239 245 239 214 151 153 163 164 162 158 156 153 148 142 139 139 136 132 126 123 122 118 112 108 103 98 89 80 77 82 100 108 111 114 110 108
208 200 212 219 216 214 215 223 234 238 234 185 175 170 171 171 170 163 158 154 151 146 142 139 136 134 131 124 120 114 108 104 105 104 93 81 85 91 108 113 105 96 91 90
204 193 217 202 208 220 219 220 228 240 226 207 187 160 159 171 171 163 156 152 150 146 141 139 137 133 128 122 118 115 110 104 100 100 95 88 90 98 97 97 95 86 80 80
213 210 208 178 190 205 211 217 217 219 199 165 141 145 145 157 162 155 149 146 143 140 135 131 131 130 126 119 115 114 107 102 98 99 98 94 88 85 86 88 87 86 82 79
219 225 215 179 159 186 214 217 197 201 189 170 172 194 152 147 144 140 136 136 134 131 127 127 130 131 126 122 117 110 106 102 96 95 96 95 90 88 89 90 89 87 78 73
219 225 215 107 140 180 214 184 147 184 185 179 188 103 121 135 134 133 131 131 129 126 124 126 129 130 125 121 115 110 107 106 100 96 96 95 91 89 93 94 91 87 84 75
219 226 199 110 178 205 32 45 130 167 171 160 126 113 123 128 130 132 131 129 126 121 117 120 127 129 122 114 112 110 106 104 100 97 95 95 94 92 93 100 103 99 94 86
230 219 66 64 16 14 358 13 100 141 142 138 134 130 127 127 128 129 128 125 124 122 118 114 117 122 120 115 116 116 111 106 102 98 93 94 97 103 108 109 105 104 101 95
205 141 71 29 30 4 3 57 114 131 137 141 135 131 130 127 126 126 125 125 126 124 119 113 112 110 111 117 121 119 114 109 107 104 96 83 72 71 75 76 89 95 93 94
212 198 178 111 62 57 84 105 117 125 132 135 131 132 130 127 126 124 121 121 120 118 116 114 113 109 111 116 120 118 113 110 109 102 95 86 69 47 51 50 33 49 76 84
220 152 193 96 74 96 107 112 117 121 121 124 129 129 127 123 124 124 123 122 120 118 116 117 116 112 113 116 119 121 119 117 116 113 111 108 102 84 53 57 55 52 47 60
318 58 75 115 114 108 107 109 113 118 122 123 123 126 126 126 127 126 123 123 123 122 122 122 120 117 118 120 120 119 118 118 116 116 117 116 116 115 107 83 69 62 58 64
153 150 151 143 114 107 108 109 112 114 118 121 123 124 124 126 128 127 126 127 126 125 124 124 121 118 120 120 120 120 117 111 116 116 116 116 116 117 118 120 114 98 79 76
186 183 151 127 122 118 120 124 124 122 122 121 123 126 128 128 129 126 125 126 125 124 121 119 116 115 119 122 121 119 118 119 116 115 117 115 115 116 114 113 112 113 115 107
145 132 142 142 133 132 135 134 131 130 130 128 128 129 129 128 126 124 124 127 129 125 122 120 118 119 122 121 119 114 106 101 113 119 118 117 116 115 115 118 116 113 112 114
173 162 158 151 139 135 132 129 130 132 131 130 128 128 129 127 125 124 125 123 120 118 121 121 121 123 126 126 126 122 120 120 125 121 115 115 115 112 110 113 111 106 95 78
193 182 172 152 143 136 128 127 130 132 132 131 133 133 132 131 129 127 125 121 117 112 111 118 122 126 126 125 124 122 123 124 124 116 116 113 114 116 115 113 113 111 112 115
162 151 144 140 139 135 129 129 129 129 131 134 133 130 126 124 126 127 127 126 125 121 119 119 125 132 125 118 120 125 123 122 120 115 114 117 127 117 114 114 113 113 114 118
139 140 140 136 135 133 131 130 129 129 131 131 129 126 124 124 126 127 124 117 110 112 124 127 133 125 124 121 133 128 124 123 121 121 124 129 120 116 116 114 114 113 111 111
135 137 137 133 129 128 130 132 131 129 129 131 130 128 125 124 127 128 126 117 109 113 121 125 125 119 121 123 153 127 127 128 127 127 126 122 119 121 119 118 117 117 116 113
134 130 130 127 125 122 122 124 125 123 124 126 126 126 127 127 126 120 111 111 119 123 130 126 121 110 118 146 141 129 128 128 130 127 125 126 127 125 122 125 125 122 120 122
130 128 126 124 122 120 118 119 122 123 124 125 127 129 128 126 127 127 120 119 126 127 128 113 108 116 152 165 128 124 125 127 128 127 126 126 126 126 127 130 129 134 137 138
121 118 117 119 121 120 119 118 116 116 118 118 120 123 125 123 118 112 112 117 115 125 116 107 117 134 189 142 120 122 124 126 127 127 128 131 132 129 127 133 140 143 147 157
114 115 119 123 121 118 118 120 118 119 118 113 115 116 116 115 117 117 119 122 125 131 121 121 133 151 156 121 120 120 117 106 101 115 123 125 127 125 126 133 139 145 157 163
112 114 113 111 110 117 123 123 121 120 118 115 114 115 114 115 118 119 122 126 128 130 126 129 137 156 140 124 119 117 116 120 126 123 110 121 126 122 119 123 132 139 147 145
108 108 109 108 109 113 118 122 122 121 121 121 119 117 118 120 121 123 126 128 131 131 126 129 134 138 135 132 129 130 131 132 132 127 131 134 130 132 137 152 156 159 179 167